Location: Andiroba
(19.8650°S, 43.9258°W)
Time: 08:27:00
(UTC+00:00)

Cosmos 1447 Rocket - Pass Details

Date: 27 September 2024
Orbit: 954 x 995 km, 82.9° (Epoch: 12 October)

Event Time Altitude Azimuth Distance (km) Brightness Sun altitude
Rises 07:26:08 0° 195° (SSW) 3,668 7.5 -18.2°
Reaches altitude 10° 07:28:46 10° 201° (SSW) 2,711 6.7 -17.6°
Maximum altitude 07:34:34 43° 271° (W) 1,313 4.7 -16.2°
Drops below altitude 10° 07:40:18 10° 341° (NNW) 2,673 6.5 -14.9°
Sets 07:42:53 0° 347° (NNW) 3,611 7.3 -14.3°
